Location: Newark
(7.1028°S, 35.3258°W)
Time: 13:46:04
(UTC+00:00)

Vanguard 3 - Pass Details

Date: 23 February 2020
Orbit: 508 x 3263 km, 33.4° (Epoch: 04 April)

Event Time Altitude Azimuth Distance (km) Brightness Sun altitude
Rises 08:23:16 0° 263° (W) 3,001 - -1.6°
Exits shadow 08:23:29 - 264° (W) 2,920 9.4 -1.5°
Reaches altitude 10° 08:26:57 10° 292° (WNW) 1,828 8.4 -0.7°
Maximum altitude 08:28:49 13° 321° (NW) 1,572 8.2 -0.2°
Drops below altitude 10° 08:30:34 10° 350° (N) 1,708 8.6 0.2°
Sets 08:33:46 0° 21° (NNE) 2,620 9.9 1.0°
